Back to catalog

FENGYUN 1C DEB

AliveSSO
NORAD 36695·DEBRIS·🇨🇳 China

Launched May 10, 1999 from Taiyuan Satellite Launch Center

Loading…

Next Passes (next 24 hours)

TLE

FreshSource: Space-Track

Epoch: Sep 14, 2026, 03:45 UTC

1 36695U 99025DZR 26257.15657294  .00001255  00000-0  25523-3 0  9998
2 36695  98.2508 235.1635 0254724  13.3455 347.4310 14.44436068935439

Track FENGYUN 1C DEB in real time with AllMySat

Download on the App Store